IRIDIUM 130 (43073 NORAD) Tracking and Keplerian Element Data

This shows tracking and keplerian element data for the satellite.

Feedback or suggestion? Click here.




ElementValue
Catalog43073
NameIRIDIUM 130
Epoch Orbit19586
Epoch Day262.17980651
Epoch Year2021
RAAN325.9564
Inclination86.3995
Eccentricity0.0002167
Argument of Perigee88.1448
Mean Anonmoly271.9996
Mean Motion14.34219433
Decay Rate8.4E-07
L11 43073U 17083D 21262.17980651 .00000084 00000-0 22963-4 0 9994
L22 43073 86.3995 325.9564 0002167 88.1448 271.9996 14.34219433195868

Live tracking and technical data element details for IRIDIUM 130 (NORAD 43073). IRIDIUM 130 can be tracked NOW for your location showing map with azimuth and elevation plus other details from your city location.

Track the satellite on the map from your city or location and see movement details for azimuth, elevation, latitude, longitude, range, height, and movement on the map or in text.







IsCatalogInMostPopularTable: catalog: 43073, numindb: 558
Update: records affected: 1



GetName: 43073 IRIDIUM 130

Hit Count: updated at: Sun, 26 Sep 2021 00:48:29 GMT